ENT1BU EPWA-LGSA

Flight info

Callsign ENT1BU
Flight time N/A
Altitude 38000
Route EVINA DCT KUKAM DCT MEBAN/N0442F390 DCT PARAK DCT TISAK DCT XENIT DCT IDABO DCT IBISI DCT MAKED DCT ATV UP169 MANOK L612 RUSOS
Aircraft B738/M-DFGHIJ1LORVWXY/EB1

Departure

Time 2026-05-06 17:18
Airport Warsaw Chopin Airport (EPWA)

Arrival

Time N/A
Airport Chania International Airport (LGSA)
Time Latitude Longitude Altitude Speed Heading
2026-05-06 16:56 52.17957 20.96067 333 ft 0 kts 167°
2026-05-06 17:10 52.17967 20.96063 338 ft 3 kts 167°
2026-05-06 17:10 52.17985 20.96057 332 ft 3 kts 179°
2026-05-06 17:10 52.18001 20.96062 334 ft 3 kts 228°
2026-05-06 17:11 52.18008 20.96089 334 ft 3 kts 259°
2026-05-06 17:11 52.18011 20.96111 337 ft 1 kts 258°
2026-05-06 17:11 52.18011 20.96112 337 ft 0 kts 258°
2026-05-06 17:13 52.18010 20.96102 336 ft 5 kts 258°
2026-05-06 17:13 52.17981 20.95972 336 ft 19 kts 239°
2026-05-06 17:13 52.17869 20.95977 336 ft 19 kts 152°
2026-05-06 17:13 52.17753 20.96079 336 ft 20 kts 152°
2026-05-06 17:14 52.17608 20.96206 333 ft 27 kts 152°
2026-05-06 17:14 52.17446 20.96347 334 ft 26 kts 151°
2026-05-06 17:14 52.17293 20.96482 334 ft 24 kts 152°
2026-05-06 17:14 52.17145 20.96611 335 ft 25 kts 152°
2026-05-06 17:15 52.16999 20.96738 336 ft 23 kts 152°
2026-05-06 17:15 52.16860 20.96860 334 ft 22 kts 152°
2026-05-06 17:15 52.16719 20.96984 338 ft 24 kts 152°
2026-05-06 17:15 52.16619 20.97212 337 ft 27 kts 115°
2026-05-06 17:16 52.16544 20.97480 336 ft 25 kts 114°
2026-05-06 17:16 52.16474 20.97728 338 ft 23 kts 114°
2026-05-06 17:16 52.16388 20.97783 338 ft 0 kts 203°
2026-05-06 17:17 52.16360 20.97763 338 ft 7 kts 203°
2026-05-06 17:17 52.16309 20.97683 335 ft 13 kts 265°
2026-05-06 17:17 52.16353 20.97503 335 ft 36 kts 294°
2026-05-06 17:18 52.16564 20.96748 337 ft 108 kts 294°
2026-05-06 17:18 52.16950 20.95329 423 ft 156 kts 291°
2026-05-06 17:18 52.17374 20.93711 1166 ft 160 kts 290°
2026-05-06 17:18 52.17826 20.91928 1726 ft 180 kts 288°
2026-05-06 17:19 52.18322 20.89990 2486 ft 186 kts 289°
2026-05-06 17:19 52.18585 20.88021 3359 ft 182 kts 257°
2026-05-06 17:19 52.18160 20.86035 4042 ft 182 kts 243°
2026-05-06 17:19 52.17679 20.84290 5290 ft 155 kts 246°
2026-05-06 17:20 52.17373 20.82665 6213 ft 152 kts 253°
2026-05-06 17:20 52.17117 20.80846 6584 ft 179 kts 254°
2026-05-06 17:20 52.16843 20.78795 6945 ft 195 kts 255°
2026-05-06 17:20 52.16533 20.76502 7204 ft 215 kts 255°
2026-05-06 17:21 52.16213 20.74149 7941 ft 214 kts 255°
2026-05-06 17:21 52.15911 20.71784 8731 ft 208 kts 256°
2026-05-06 17:21 52.15648 20.69567 9761 ft 192 kts 256°